Time,TemperatureF,DewpointF,PressureIn,WindDirection,WindDirectionDegrees,WindSpeedMPH,WindSpeedGustMPH,Humidity,HourlyPrecipIn,Conditions,Clouds,dailyrainin,SoftwareType,DateUTC
2013-01-04 00:03:00,29.0,29.0,-100.00,South,182,1.0,1.0,99,0.00,,,0.00,,2013-01-04 05:03:00,
2013-01-04 00:12:00,29.0,29.0,-100.00,South,181,1.0,1.0,99,0.00,,,0.00,,2013-01-04 05:12:00,
2013-01-04 00:22:00,29.0,29.0,-100.00,South,181,1.0,1.0,99,0.00,,,0.00,,2013-01-04 05:22:00,
2013-01-04 00:33:00,29.0,28.0,-100.00,South,182,1.0,2.0,99,0.00,,,0.00,,2013-01-04 05:33:00,
2013-01-04 00:42:00,29.0,28.0,-100.00,South,182,1.0,2.0,99,0.00,,,0.00,,2013-01-04 05:42:00,
2013-01-04 00:53:00,30.0,29.0,-100.00,South,188,2.0,4.0,99,0.00,,,0.00,,2013-01-04 05:53:00,
2013-01-04 01:02:00,30.0,29.0,-100.00,South,188,2.0,4.0,99,0.00,,,0.00,,2013-01-04 06:02:00,
2013-01-04 01:12:00,31.0,30.0,-100.00,South,184,1.0,2.0,98,0.00,,,0.00,,2013-01-04 06:12:00,
2013-01-04 01:22:00,31.0,30.0,-100.00,South,184,1.0,2.0,98,0.00,,,0.00,,2013-01-04 06:22:00,
2013-01-04 01:33:00,30.0,29.0,-100.00,South,191,3.0,4.0,96,0.00,,,0.00,,2013-01-04 06:33:00,
2013-01-04 01:42:00,30.0,29.0,-100.00,South,191,3.0,4.0,96,0.00,,,0.00,,2013-01-04 06:42:00,
2013-01-04 01:53:00,30.0,28.0,-100.00,South,185,2.0,2.0,94,0.00,,,0.00,,2013-01-04 06:53:00,
2013-01-04 02:02:00,30.0,28.0,-100.00,South,185,2.0,2.0,94,0.00,,,0.00,,2013-01-04 07:02:00,
2013-01-04 02:12:00,29.0,28.0,-100.00,South,191,3.0,4.0,96,0.00,,,0.00,,2013-01-04 07:12:00,
2013-01-04 02:22:00,29.0,28.0,-100.00,South,191,3.0,4.0,96,0.00,,,0.00,,2013-01-04 07:22:00,
2013-01-04 02:32:00,30.0,28.0,-100.00,SSW,192,3.0,5.0,92,0.00,,,0.00,,2013-01-04 07:32:00,
2013-01-04 02:42:00,30.0,28.0,-100.00,SSW,192,3.0,5.0,92,0.00,,,0.00,,2013-01-04 07:42:00,
2013-01-04 02:52:00,29.0,27.0,-100.00,SSW,196,3.0,5.0,92,0.00,,,0.00,,2013-01-04 07:52:00,
2013-01-04 03:02:00,29.0,27.0,-100.00,SSW,196,3.0,5.0,92,0.00,,,0.00,,2013-01-04 08:02:00,
2013-01-04 03:12:00,31.0,26.0,-100.00,SW,233,4.0,6.0,84,0.00,,,0.00,,2013-01-04 08:12:00,
2013-01-04 03:23:00,31.0,26.0,-100.00,SW,233,4.0,6.0,84,0.00,,,0.00,,2013-01-04 08:23:00,
2013-01-04 03:32:00,31.0,26.0,-100.00,SW,236,4.0,5.0,82,0.00,,,0.00,,2013-01-04 08:32:00,
2013-01-04 03:42:00,31.0,26.0,-100.00,SW,236,4.0,5.0,82,0.00,,,0.00,,2013-01-04 08:42:00,
2013-01-04 03:53:00,31.0,25.0,-100.00,WSW,250,6.0,9.0,76,0.00,,,0.00,,2013-01-04 08:53:00,
2013-01-04 04:02:00,31.0,25.0,-100.00,WSW,250,6.0,9.0,76,0.00,,,0.00,,2013-01-04 09:02:00,